| time (UTC) | temp F | wind direction | speed knots | gust knots | rain 1hr in | rain 24hr in | rain mn in | humidity % | barometer mb |
| 20260503005511 | 78 | 15 | 0.9 | 3.5 | 0.00 | 0.00 | 0.00 | 16 | 1012.3 |
| 20260503005012 | 79 | 0 | 0.0 | 1.7 | 0.00 | 0.00 | 0.00 | 17 | 1012.4 |
| 20260503004531 | 79 | 53 | 0.0 | 1.7 | 0.00 | 0.00 | 0.00 | 16 | 1012.4 |
| 20260503004010 | 79 | 0 | 0.0 | 1.7 | 0.00 | 0.00 | 0.00 | 16 | 1012.4 |
| 20260503003509 | 80 | 0 | 0.0 | 1.7 | 0.00 | 0.00 | 0.00 | 17 | 1012.3 |
| 20260503003046 | 80 | 0 | 0.0 | 0.9 | 0.00 | 0.00 | 0.00 | 17 | 1012.5 |
| 20260503002511 | 80 | 0 | 0.0 | 0.9 | 0.00 | 0.00 | 0.00 | 18 | 1012.5 |
| 20260503002010 | 80 | 0 | 0.0 | 2.6 | 0.00 | 0.00 | 0.00 | 18 | 1012.5 |
| 20260503001547 | 80 | 0 | 0.0 | 2.6 | 0.00 | 0.00 | 0.00 | 20 | 1012.5 |
| 20260503001011 | 80 | 334 | 0.0 | 1.7 | 0.00 | 0.00 | 0.00 | 16 | 1012.7 |
| 20260503000509 | 80 | 170 | 0.0 | 1.7 | 0.00 | 0.00 | 0.00 | 15 | 1012.7 |
| 20260503000032 | 80 | 0 | 0.0 | 1.7 | 0.00 | 0.00 | 0.00 | 15 | 1012.7 |
| 20260502235510 | 80 | 167 | 0.0 | 1.7 | 0.00 | 0.00 | 0.00 | 17 | 1012.6 |
| 20260502235010 | 81 | 110 | 0.0 | 1.7 | 0.00 | 0.00 | 0.00 | 16 | 1012.6 |
| 20260502234535 | 82 | 0 | 0.0 | 3.5 | 0.00 | 0.00 | 0.00 | 16 | 1012.6 |
| 20260502234011 | 82 | 139 | 0.0 | 3.5 | 0.00 | 0.00 | 0.00 | 18 | 1012.8 |
| 20260502233512 | 82 | 205 | 0.0 | 1.7 | 0.00 | 0.00 | 0.00 | 15 | 1012.8 |
| 20260502233031 | 82 | 250 | 0.0 | 2.6 | 0.00 | 0.00 | 0.00 | 15 | 1012.8 |
| 20260502232510 | 82 | 0 | 0.0 | 2.6 | 0.00 | 0.00 | 0.00 | 17 | 1012.8 |
| 20260502232012 | 82 | 103 | 0.9 | 2.6 | 0.00 | 0.00 | 0.00 | 14 | 1012.8 |
| 20260502231528 | 82 | 45 | 0.0 | 2.6 | 0.00 | 0.00 | 0.00 | 17 | 1013.0 |
| 20260502231011 | 81 | 3 | 0.9 | 2.6 | 0.00 | 0.00 | 0.00 | 17 | 1012.9 |
| 20260502230508 | 81 | 183 | 0.0 | 1.7 | 0.00 | 0.00 | 0.00 | 14 | 1013.0 |
| 20260502230033 | 81 | 0 | 0.0 | 2.6 | 0.00 | 0.00 | 0.00 | 16 | 1013.1 |
| 20260502225509 | 81 | 113 | 0.0 | 2.6 | 0.00 | 0.00 | 0.00 | 16 | 1013.2 |
| 20260502225014 | 80 | 146 | 0.0 | 2.6 | 0.00 | 0.00 | 0.00 | 16 | 1013.2 |
| 20260502224530 | 81 | 47 | 0.0 | 2.6 | 0.00 | 0.00 | 0.00 | 14 | 1013.2 |
| 20260502224011 | 81 | 155 | 0.0 | 3.5 | 0.00 | 0.00 | 0.00 | 16 | 1013.3 |
| 20260502223511 | 82 | 182 | 0.9 | 3.5 | 0.00 | 0.00 | 0.00 | 16 | 1013.4 |
| 20260502223031 | 82 | 96 | 0.0 | 4.3 | 0.00 | 0.00 | 0.00 | 16 | 1013.6 |
| 20260502222508 | 82 | 198 | 1.7 | 4.3 | 0.00 | 0.00 | 0.00 | 16 | 1013.7 |
| 20260502222009 | 82 | 0 | 0.0 | 5.2 | 0.00 | 0.00 | 0.00 | 19 | 1013.7 |
| 20260502221529 | 81 | 0 | 0.9 | 5.2 | 0.00 | 0.00 | 0.00 | 17 | 1013.8 |
| 20260502221008 | 81 | 190 | 1.7 | 5.2 | 0.00 | 0.00 | 0.00 | 16 | 1013.9 |
| 20260502220512 | 82 | 214 | 1.7 | 3.5 | 0.00 | 0.00 | 0.00 | 17 | 1013.9 |
| 20260502220033 | 82 | 212 | 0.9 | 7.0 | 0.00 | 0.00 | 0.00 | 18 | 1013.9 |
| 20260502215515 | 82 | 176 | 1.7 | 7.0 | 0.00 | 0.00 | 0.00 | 18 | 1014.0 |
| 20260502215007 | 81 | 65 | 0.9 | 4.3 | 0.00 | 0.00 | 0.00 | 18 | 1014.0 |
| 20260502214527 | 81 | 101 | 1.7 | 5.2 | 0.00 | 0.00 | 0.00 | 18 | 1014.2 |
| 20260502214011 | 81 | 79 | 1.7 | 5.2 | 0.00 | 0.00 | 0.00 | 20 | 1014.2 |
| 20260502213513 | 82 | 155 | 2.6 | 5.2 | 0.00 | 0.00 | 0.00 | 19 | 1014.3 |
| 20260502213033 | 82 | 231 | 1.7 | 4.3 | 0.00 | 0.00 | 0.00 | 21 | 1014.3 |
| 20260502212512 | 81 | 289 | 0.9 | 4.3 | 0.00 | 0.00 | 0.00 | 20 | 1014.4 |
| 20260502212018 | 81 | 193 | 0.9 | 3.5 | 0.00 | 0.00 | 0.00 | 20 | 1014.5 |
| 20260502211530 | 80 | 134 | 0.9 | 4.3 | 0.00 | 0.00 | 0.00 | 20 | 1014.5 |
| 20260502211010 | 80 | 287 | 1.7 | 4.3 | 0.00 | 0.00 | 0.00 | 21 | 1014.7 |
| 20260502210513 | 80 | 176 | 1.7 | 3.5 | 0.00 | 0.00 | 0.00 | 20 | 1014.7 |
| 20260502210027 | 81 | 239 | 1.7 | 4.3 | 0.00 | 0.00 | 0.00 | 19 | 1014.7 |
| 20260502205511 | 81 | 260 | 1.7 | 4.3 | 0.00 | 0.00 | 0.00 | 18 | 1014.7 |
| 20260502205013 | 81 | 244 | 0.9 | 4.3 | 0.00 | 0.00 | 0.00 | 18 | 1014.9 |
| 20260502204531 | 81 | 89 | 0.9 | 4.3 | 0.00 | 0.00 | 0.00 | 17 | 1014.8 |
| 20260502204009 | 81 | 176 | 1.7 | 8.7 | 0.00 | 0.00 | 0.00 | 18 | 1015.0 |
| 20260502203512 | 81 | 212 | 2.6 | 8.7 | 0.00 | 0.00 | 0.00 | 18 | 1015.0 |
| 20260502203029 | 81 | 151 | 0.9 | 5.2 | 0.00 | 0.00 | 0.00 | 18 | 1015.0 |
| 20260502202509 | 81 | 195 | 1.7 | 5.2 | 0.00 | 0.00 | 0.00 | 18 | 1015.2 |
| 20260502202011 | 81 | 268 | 1.7 | 7.0 | 0.00 | 0.00 | 0.00 | 19 | 1015.2 |
| 20260502201528 | 81 | 312 | 1.7 | 7.8 | 0.00 | 0.00 | 0.00 | 20 | 1015.2 |
| 20260502201011 | 81 | 169 | 3.5 | 7.8 | 0.00 | 0.00 | 0.00 | 17 | 1015.3 |
| 20260502200510 | 81 | 276 | 1.7 | 4.3 | 0.00 | 0.00 | 0.00 | 19 | 1015.3 |
| 20260502200029 | 81 | 269 | 1.7 | 6.1 | 0.00 | 0.00 | 0.00 | 21 | 1015.3 |
| 20260502195510 | 81 | 226 | 1.7 | 6.1 | 0.00 | 0.00 | 0.00 | 21 | 1015.4 |
| 20260502195010 | 81 | 196 | 1.7 | 5.2 | 0.00 | 0.00 | 0.00 | 21 | 1015.4 |
| 20260502194530 | 80 | 244 | 1.7 | 5.2 | 0.00 | 0.00 | 0.00 | 21 | 1015.4 |
| 20260502194010 | 80 | 240 | 2.6 | 5.2 | 0.00 | 0.00 | 0.00 | 20 | 1015.6 |
| 20260502193511 | 79 | 155 | 0.9 | 3.5 | 0.00 | 0.00 | 0.00 | 23 | 1015.5 |
| 20260502193032 | 78 | 323 | 0.9 | 5.2 | 0.00 | 0.00 | 0.00 | 27 | 1015.7 |
| 20260502192509 | 78 | 0 | 0.0 | 5.2 | 0.00 | 0.00 | 0.00 | 29 | 1015.7 |
| 20260502192009 | 78 | 101 | 0.9 | 5.2 | 0.00 | 0.00 | 0.00 | 28 | 1015.9 |
| 20260502191530 | 77 | 109 | 0.0 | 2.6 | 0.00 | 0.00 | 0.00 | 30 | 1015.8 |
| 20260502191010 | 77 | 120 | 0.9 | 2.6 | 0.00 | 0.00 | 0.00 | 29 | 1015.9 |
| 20260502190513 | 77 | 46 | 0.0 | 2.6 | 0.00 | 0.00 | 0.00 | 34 | 1016.0 |
| 20260502190029 | 77 | 54 | 0.0 | 1.7 | 0.00 | 0.00 | 0.00 | 32 | 1016.1 |
| 20260502185512 | 76 | 96 | 0.0 | 1.7 | 0.00 | 0.00 | 0.00 | 32 | 1016.2 |
| 20260502185013 | 76 | 72 | 0.9 | 1.7 | 0.00 | 0.00 | 0.00 | 30 | 1016.2 |
| 20260502184550 | 76 | 329 | 0.0 | 2.6 | 0.00 | 0.00 | 0.00 | 30 | 1016.2 |
| 20260502184011 | 76 | 172 | 0.0 | 2.6 | 0.00 | 0.00 | 0.00 | 32 | 1016.4 |
| 20260502183511 | 75 | 340 | 0.0 | 2.6 | 0.00 | 0.00 | 0.00 | 34 | 1016.5 |
| 20260502183030 | 75 | 355 | 0.9 | 2.6 | 0.00 | 0.00 | 0.00 | 32 | 1016.5 |
| 20260502182509 | 74 | 0 | 0.0 | 1.7 | 0.00 | 0.00 | 0.00 | 33 | 1016.6 |
| 20260502182011 | 73 | 346 | 0.9 | 1.7 | 0.00 | 0.00 | 0.00 | 34 | 1016.6 |
| 20260502181531 | 73 | 25 | 0.0 | 1.7 | 0.00 | 0.00 | 0.00 | 35 | 1016.7 |
| 20260502181015 | 72 | 0 | 0.0 | 1.7 | 0.00 | 0.00 | 0.00 | 36 | 1016.8 |
| 20260502180510 | 72 | 56 | 0.0 | 1.7 | 0.00 | 0.00 | 0.00 | 36 | 1016.9 |
| 20260502170511 | 66 | 47 | 1.7 | 3.5 | 0.00 | 0.00 | 0.00 | 44 | 1017.3 |
| 20260502164012 | 64 | 9 | 0.0 | 2.6 | 0.00 | 0.00 | 0.00 | 47 | 1017.4 |
| 20260502163512 | 64 | 68 | 0.9 | 2.6 | 0.00 | 0.00 | 0.00 | 47 | 1017.4 |
| 20260502163037 | 63 | 22 | 0.0 | 3.5 | 0.00 | 0.00 | 0.00 | 47 | 1017.5 |
| 20260502162514 | 62 | 72 | 0.9 | 3.5 | 0.00 | 0.00 | 0.00 | 47 | 1017.4 |
| 20260502162017 | 62 | 355 | 1.7 | 3.5 | 0.00 | 0.00 | 0.00 | 47 | 1017.5 |
| 20260502161535 | 62 | 66 | 0.0 | 1.7 | 0.00 | 0.00 | 0.00 | 49 | 1017.6 |
| 20260502161010 | 61 | 343 | 0.0 | 1.7 | 0.00 | 0.00 | 0.00 | 50 | 1017.6 |
| 20260502160512 | 60 | 0 | 0.0 | 1.7 | 0.00 | 0.00 | 0.00 | 53 | 1017.7 |
| 20260502152012 | 55 | 349 | 0.0 | 1.7 | 0.00 | 0.00 | 0.00 | 58 | 1017.5 |
| 20260502151529 | 54 | 0 | 0.0 | 1.7 | 0.00 | 0.00 | 0.00 | 59 | 1017.4 |
| 20260502151011 | 53 | 0 | 0.0 | 0.9 | 0.00 | 0.00 | 0.00 | 60 | 1017.4 |
| 20260502150510 | 53 | 0 | 0.0 | 0.0 | 0.00 | 0.00 | 0.00 | 62 | 1017.4 |
| 20260502130511 | 47 | 0 | 0.0 | 0.9 | 0.00 | 0.00 | 0.00 | 66 | 1016.2 |
| 20260502123515 | 49 | 0 | 0.0 | 0.9 | 0.00 | 0.00 | 0.00 | 65 | 1016.1 |
| 20260502123032 | 49 | 0 | 0.0 | 0.9 | 0.00 | 0.00 | 0.00 | 61 | 1016.3 |
| 20260502122508 | 50 | 0 | 0.0 | 0.0 | 0.00 | 0.00 | 0.00 | 60 | 1016.2 |
| 20260502122011 | 50 | 0 | 0.0 | 0.0 | 0.00 | 0.00 | 0.00 | 57 | 1016.1 |
| 20260502121529 | 51 | 0 | 0.0 | 0.0 | 0.00 | 0.00 | 0.00 | 57 | 1016.3 |
| 20260502121010 | 51 | 0 | 0.0 | 0.0 | 0.00 | 0.00 | 0.00 | 58 | 1016.2 |
| 20260502120511 | 51 | 0 | 0.0 | 0.0 | 0.00 | 0.00 | 0.00 | 55 | 1016.2 |
| 20260502115513 | 51 | 0 | 0.0 | 0.0 | 0.00 | 0.00 | 0.00 | 55 | 1016.3 |
| 20260502115011 | 52 | 0 | 0.0 | 0.0 | 0.00 | 0.00 | 0.00 | 55 | 1016.4 |
| 20260502114529 | 52 | 0 | 0.0 | 0.9 | 0.00 | 0.00 | 0.00 | 53 | 1016.4 |
| 20260502114008 | 52 | 0 | 0.0 | 0.9 | 0.00 | 0.00 | 0.00 | 53 | 1016.4 |
| 20260502113512 | 53 | 0 | 0.0 | 0.9 | 0.00 | 0.00 | 0.00 | 52 | 1016.5 |
| 20260502113028 | 52 | 0 | 0.0 | 0.0 | 0.00 | 0.00 | 0.00 | 51 | 1016.4 |
| 20260502112511 | 52 | 0 | 0.0 | 0.9 | 0.00 | 0.00 | 0.00 | 52 | 1016.4 |
| 20260502112012 | 53 | 0 | 0.0 | 0.9 | 0.00 | 0.00 | 0.00 | 52 | 1016.5 |
| 20260502111530 | 53 | 0 | 0.0 | 0.9 | 0.00 | 0.00 | 0.00 | 50 | 1016.5 |
| 20260502111011 | 54 | 0 | 0.0 | 0.9 | 0.00 | 0.00 | 0.00 | 50 | 1016.5 |
| 20260502110508 | 54 | 0 | 0.0 | 1.7 | 0.00 | 0.00 | 0.00 | 49 | 1016.5 |
| 20260502110030 | 54 | 0 | 0.0 | 1.7 | 0.00 | 0.00 | 0.00 | 49 | 1016.5 |
| 20260502105512 | 54 | 0 | 0.0 | 1.7 | 0.00 | 0.00 | 0.00 | 48 | 1016.6 |
| 20260502105011 | 54 | 0 | 0.0 | 1.7 | 0.00 | 0.00 | 0.00 | 49 | 1016.5 |
| 20260502104536 | 54 | 0 | 0.0 | 1.7 | 0.00 | 0.00 | 0.00 | 49 | 1016.6 |
| 20260502104008 | 54 | 0 | 0.0 | 0.9 | 0.00 | 0.00 | 0.00 | 49 | 1016.5 |
| 20260502103511 | 54 | 186 | 0.0 | 0.9 | 0.00 | 0.00 | 0.00 | 49 | 1016.5 |
| 20260502103028 | 55 | 0 | 0.0 | 1.7 | 0.00 | 0.00 | 0.00 | 48 | 1016.7 |
| 20260502102510 | 55 | 0 | 0.0 | 1.7 | 0.00 | 0.00 | 0.00 | 48 | 1016.6 |
| 20260502102011 | 55 | 326 | 0.0 | 1.7 | 0.00 | 0.00 | 0.00 | 48 | 1016.6 |
| 20260502101528 | 54 | 0 | 0.0 | 1.7 | 0.00 | 0.00 | 0.00 | 49 | 1016.6 |
| 20260502101008 | 54 | 0 | 0.0 | 0.9 | 0.00 | 0.00 | 0.00 | 50 | 1016.7 |
| 20260502100512 | 54 | 0 | 0.0 | 0.0 | 0.00 | 0.00 | 0.00 | 50 | 1016.6 |
| 20260502091528 | 53 | 0 | 0.0 | 0.9 | 0.00 | 0.00 | 0.00 | 52 | 1016.6 |
| 20260502091009 | 53 | 0 | 0.0 | 0.0 | 0.00 | 0.00 | 0.00 | 51 | 1016.7 |
| 20260502090510 | 53 | 0 | 0.0 | 0.9 | 0.00 | 0.00 | 0.00 | 53 | 1016.6 |
| 20260502071526 | 49 | 0 | 0.0 | 0.0 | 0.00 | 0.00 | 0.00 | 64 | 1016.8 |
| 20260502071008 | 48 | 0 | 0.0 | 0.0 | 0.00 | 0.00 | 0.00 | 65 | 1016.8 |
| 20260502070511 | 49 | 0 | 0.0 | 0.0 | 0.00 | 0.00 | 0.00 | 64 | 1017.0 |
| 20260502070032 | 49 | 0 | 0.0 | 0.0 | 0.00 | 0.00 | 0.00 | 63 | 1016.9 |
| 20260502065511 | 49 | 0 | 0.0 | 0.0 | 0.00 | 0.00 | 0.00 | 63 | 1016.9 |
| 20260502065009 | 49 | 0 | 0.0 | 0.0 | 0.00 | 0.00 | 0.00 | 63 | 1016.9 |
| 20260502064528 | 49 | 0 | 0.0 | 0.0 | 0.00 | 0.00 | 0.00 | 64 | 1017.0 |
| 20260502064008 | 49 | 0 | 0.0 | 0.0 | 0.00 | 0.00 | 0.00 | 63 | 1016.9 |
| 20260502063510 | 49 | 0 | 0.0 | 0.0 | 0.00 | 0.00 | 0.00 | 63 | 1017.0 |
| 20260502063030 | 49 | 0 | 0.0 | 0.0 | 0.00 | 0.00 | 0.00 | 63 | 1016.8 |
| 20260502062510 | 49 | 0 | 0.0 | 0.0 | 0.00 | 0.00 | 0.00 | 63 | 1017.0 |
| 20260502062015 | 49 | 0 | 0.0 | 0.0 | 0.00 | 0.00 | 0.00 | 63 | 1017.0 |
| 20260502061529 | 49 | 0 | 0.0 | 0.0 | 0.00 | 0.00 | 0.00 | 63 | 1016.9 |
| 20260502061011 | 50 | 0 | 0.0 | 0.0 | 0.00 | 0.00 | 0.00 | 63 | 1016.9 |
| 20260502060508 | 50 | 0 | 0.0 | 0.0 | 0.00 | 0.00 | 0.00 | 62 | 1016.9 |
| 20260502060028 | 50 | 0 | 0.0 | 0.0 | 0.00 | 0.00 | 0.00 | 62 | 1017.0 |
| 20260502055510 | 50 | 0 | 0.0 | 0.0 | 0.00 | 0.00 | 0.00 | 62 | 1017.0 |
| 20260502055011 | 50 | 0 | 0.0 | 0.0 | 0.00 | 0.00 | 0.00 | 62 | 1017.1 |
| 20260502054532 | 51 | 0 | 0.0 | 0.0 | 0.00 | 0.00 | 0.00 | 60 | 1017.2 |
| 20260502054008 | 51 | 0 | 0.0 | 0.0 | 0.00 | 0.00 | 0.00 | 60 | 1017.1 |
| 20260502053512 | 51 | 0 | 0.0 | 0.0 | 0.00 | 0.00 | 0.00 | 60 | 1017.1 |
| 20260502053027 | 52 | 0 | 0.0 | 0.0 | 0.00 | 0.00 | 0.00 | 59 | 1017.2 |
| 20260502052513 | 52 | 0 | 0.0 | 0.0 | 0.00 | 0.00 | 0.00 | 58 | 1017.1 |
| 20260502052011 | 52 | 0 | 0.0 | 0.0 | 0.00 | 0.00 | 0.00 | 57 | 1017.1 |
| 20260502051531 | 53 | 0 | 0.0 | 0.0 | 0.00 | 0.00 | 0.00 | 57 | 1017.1 |
| 20260502051011 | 53 | 0 | 0.0 | 0.0 | 0.00 | 0.00 | 0.00 | 57 | 1017.0 |
| 20260502050508 | 53 | 0 | 0.0 | 0.0 | 0.00 | 0.00 | 0.00 | 57 | 1017.1 |
| 20260502050030 | 54 | 0 | 0.0 | 0.0 | 0.00 | 0.00 | 0.00 | 56 | 1017.1 |
| 20260502045508 | 54 | 0 | 0.0 | 0.0 | 0.00 | 0.00 | 0.00 | 55 | 1017.1 |
| 20260502045008 | 54 | 0 | 0.0 | 0.0 | 0.00 | 0.00 | 0.00 | 54 | 1017.1 |
| 20260502044530 | 55 | 0 | 0.0 | 0.0 | 0.00 | 0.00 | 0.00 | 54 | 1017.1 |
| 20260502044010 | 55 | 0 | 0.0 | 0.0 | 0.00 | 0.00 | 0.00 | 53 | 1017.1 |
| 20260502043510 | 55 | 0 | 0.0 | 0.0 | 0.00 | 0.00 | 0.00 | 51 | 1017.2 |
| 20260502043028 | 56 | 0 | 0.0 | 0.0 | 0.00 | 0.00 | 0.00 | 50 | 1017.4 |
| 20260502042511 | 56 | 0 | 0.0 | 0.0 | 0.00 | 0.00 | 0.00 | 49 | 1017.4 |
| 20260502042011 | 56 | 0 | 0.0 | 0.0 | 0.00 | 0.00 | 0.00 | 48 | 1017.4 |
| 20260502041535 | 57 | 0 | 0.0 | 0.0 | 0.00 | 0.00 | 0.00 | 48 | 1017.4 |
| 20260502041010 | 57 | 0 | 0.0 | 0.0 | 0.00 | 0.00 | 0.00 | 47 | 1017.2 |
| 20260502040510 | 57 | 0 | 0.0 | 0.0 | 0.00 | 0.00 | 0.00 | 46 | 1017.1 |
| 20260502040037 | 58 | 0 | 0.0 | 0.0 | 0.00 | 0.00 | 0.00 | 46 | 1017.2 |
| 20260502035511 | 58 | 0 | 0.0 | 0.9 | 0.00 | 0.00 | 0.00 | 45 | 1017.2 |
| 20260502035014 | 58 | 0 | 0.0 | 0.9 | 0.00 | 0.00 | 0.00 | 46 | 1017.2 |
| 20260502034528 | 59 | 0 | 0.0 | 0.0 | 0.00 | 0.00 | 0.00 | 46 | 1017.2 |
| 20260502034010 | 59 | 0 | 0.0 | 0.0 | 0.00 | 0.00 | 0.00 | 45 | 1017.2 |
| 20260502033509 | 60 | 0 | 0.0 | 0.0 | 0.00 | 0.00 | 0.00 | 44 | 1017.0 |
| 20260502033030 | 60 | 0 | 0.0 | 0.0 | 0.00 | 0.00 | 0.00 | 43 | 1017.0 |
| 20260502032509 | 61 | 0 | 0.0 | 0.0 | 0.00 | 0.00 | 0.00 | 42 | 1017.0 |
| 20260502032011 | 61 | 0 | 0.0 | 0.0 | 0.00 | 0.00 | 0.00 | 41 | 1016.9 |
| 20260502031526 | 62 | 0 | 0.0 | 0.0 | 0.00 | 0.00 | 0.00 | 41 | 1016.8 |
| 20260502031011 | 62 | 0 | 0.0 | 0.0 | 0.00 | 0.00 | 0.00 | 40 | 1016.7 |
| 20260502030510 | 63 | 0 | 0.0 | 0.0 | 0.00 | 0.00 | 0.00 | 39 | 1016.7 |
| 20260502030035 | 63 | 0 | 0.0 | 0.0 | 0.00 | 0.00 | 0.00 | 37 | 1016.6 |
| 20260502025511 | 64 | 0 | 0.0 | 0.0 | 0.00 | 0.00 | 0.00 | 37 | 1016.5 |
| 20260502025008 | 64 | 0 | 0.0 | 0.0 | 0.00 | 0.00 | 0.00 | 35 | 1016.6 |
| 20260502024540 | 65 | 0 | 0.0 | 0.0 | 0.00 | 0.00 | 0.00 | 34 | 1016.6 |
| 20260502024009 | 66 | 0 | 0.0 | 0.0 | 0.00 | 0.00 | 0.00 | 32 | 1016.5 |
| 20260502023511 | 67 | 0 | 0.0 | 0.0 | 0.00 | 0.00 | 0.00 | 30 | 1016.5 |
| 20260502023027 | 67 | 0 | 0.0 | 0.0 | 0.00 | 0.00 | 0.00 | 29 | 1016.5 |
| 20260502022509 | 68 | 0 | 0.0 | 0.0 | 0.00 | 0.00 | 0.00 | 28 | 1016.5 |
| 20260502022009 | 68 | 0 | 0.0 | 0.0 | 0.00 | 0.00 | 0.00 | 26 | 1016.6 |
| 20260502021526 | 68 | 0 | 0.0 | 0.0 | 0.00 | 0.00 | 0.00 | 26 | 1016.6 |
| 20260502021010 | 69 | 0 | 0.0 | 0.0 | 0.00 | 0.00 | 0.00 | 26 | 1016.6 |
| 20260502020510 | 69 | 0 | 0.0 | 0.0 | 0.00 | 0.00 | 0.00 | 26 | 1016.6 |
| 20260502020029 | 70 | 0 | 0.0 | 0.0 | 0.00 | 0.00 | 0.00 | 25 | 1016.6 |
| 20260502015511 | 70 | 0 | 0.0 | 0.0 | 0.00 | 0.00 | 0.00 | 24 | 1016.6 |
| 20260502015010 | 71 | 0 | 0.0 | 0.0 | 0.00 | 0.00 | 0.00 | 24 | 1016.7 |
| 20260502014533 | 71 | 0 | 0.0 | 0.9 | 0.00 | 0.00 | 0.00 | 23 | 1016.7 |
| 20260502014009 | 71 | 0 | 0.0 | 0.9 | 0.00 | 0.00 | 0.00 | 23 | 1016.7 |
| 20260502013506 | 72 | 0 | 0.0 | 0.9 | 0.00 | 0.00 | 0.00 | 22 | 1016.6 |
| 20260502013030 | 72 | 91 | 0.0 | 1.7 | 0.00 | 0.00 | 0.00 | 21 | 1016.7 |
| 20260502012508 | 72 | 0 | 0.0 | 1.7 | 0.00 | 0.00 | 0.00 | 21 | 1016.7 |
| 20260502012008 | 73 | 102 | 0.0 | 1.7 | 0.00 | 0.00 | 0.00 | 20 | 1016.7 |
| 20260502011528 | 73 | 131 | 0.0 | 1.7 | 0.00 | 0.00 | 0.00 | 21 | 1016.8 |
| 20260502011007 | 73 | 187 | 0.0 | 1.7 | 0.00 | 0.00 | 0.00 | 21 | 1016.7 |
| 20260502010508 | 73 | 0 | 0.0 | 1.7 | 0.00 | 0.00 | 0.00 | 21 | 1016.8 |
| 20260502010029 | 73 | 199 | 0.0 | 2.6 | 0.00 | 0.00 | 0.00 | 20 | 1016.8 |